Location: La Neuville
(49.5283°N, 2.2040°E)
Time: 08:33:01
(UTC+00:00)

Daily predictions for brighter satellites

Satellite Brightness Start Highest point End
(mag) Time Altitude Azimuth Time Altitude Azimuth Time Altitude Azimuth
Cosmos 1725 Rocket 4.2 20:05:31 10° S 20:11:50 83° W 20:18:13 10° N
Cosmos 1741 Rocket 4.2 20:09:23 10° SSW 20:14:37 79° WNW 20:19:52 10° NNE
USA 186 4.3 20:15:19 10° WSW 20:16:25 12° W 20:17:30 10° WNW
Cosmos 968 Rocket 4.1 20:11:51 10° SSE 20:16:33 36° ESE 20:21:14 10° NE
Cosmos 1544 3.0 20:13:58 10° N 20:17:33 87° E 20:21:04 10° S
ERS-1 Rocket 4.1 20:14:56 10° ESE 20:19:13 29° ENE 20:23:33 10° N
Cosmos 405 3.8 20:17:15 10° N 20:20:22 33° ENE 20:23:29 10° SE
SPOT 5 4.0 20:15:38 10° SE 20:20:24 34° ENE 20:25:05 10° N
Cosmos 1980 Rocket 4.0 20:19:41 10° ESE 20:21:24 11° E 20:23:05 10° ENE
CZ-4B R/B 1.2 20:19:07 10° NNE 20:22:22 78° ESE 20:25:34 10° S
Tsikada Rocket 4.3 20:16:19 10° NNW 20:22:40 74° W 20:28:54 10° S
Cosmos 1656 4.0 20:18:19 10° S 20:23:37 46° ESE 20:28:52 10° NE
Genesis I 3.6 20:19:59 10° SSW 20:23:48 44° ESE 20:27:42 10° NE
Cosmos 1666 4.0 20:20:54 10° NNW 20:24:29 40° W 20:28:03 10° SSW
USA 238 DEB 4.0 20:17:56 10° NW 20:25:12 90° NE 20:32:53 10° SE
USA 238 4.0 20:18:03 10° NW 20:25:19 89° NE 20:33:00 10° SE
SPOT 3 Rocket 3.8 20:21:27 10° SSE 20:26:29 58° ENE 20:31:33 10° N
Cosmos 1315 Rocket 2.9 20:22:33 10° N 20:26:42 75° ENE 20:30:45 10° SSE
Cosmos 1340 4.3 20:25:19 10° SE 20:27:55 18° E 20:30:32 10° NE
EXPRESS MD2 3.7 20:22:35 10° W 20:29:23 84° S 20:32:49 10° ESE
CARTOSAT-1 3.7 20:26:14 10° SSE 20:30:28 59° ENE 20:34:45 10° N
Meteor 1-11 Rocket 4.1 20:24:47 10° N 20:30:41 58° ENE 20:36:33 10° SSE
Ariane Rocket 3.1 20:25:37 10° SSE 20:30:41 87° WSW 20:35:49 10° NNW
CENTAUR R/B 3.6 20:24:28 10° NW 20:32:32 66° SW 20:41:26 10° SSE
ISS -3.3 20:32:14 10° W 20:35:34 66° N 20:38:55 10° ENE
Cosmos 1570 Rocket 4.2 20:35:38 10° NNW 20:40:53 76° WSW 20:46:07 10° SSE
Meteor 2-19 Rocket 4.5 20:35:34 10° N 20:41:47 78° E 20:47:56 10° SSE
Cosmos 1697 Rocket 3.4 20:37:22 10° SSE 20:42:20 32° ESE 20:47:19 10° NE
Cosmos 2297 Rocket 2.3 20:37:19 10° NNW 20:43:00 82° WSW 20:48:31 11° SSE
Cosmos 921 Rocket 4.4 20:44:11 10° N 20:48:10 29° ENE 20:51:43 12° ESE
H-2A R/B 3.3 20:44:19 10° N 20:48:12 41° WNW 20:52:01 10° SW
Terra 2.6 20:46:46 13° SE 20:50:43 40° ENE 20:55:09 10° N
BREEZE-M DEB (TANK) 3.9 20:50:35 10° WSW 20:54:11 79° SSE 21:06:37 10° E
Cosmos 1328 Rocket 3.6 20:54:46 10° S 20:59:04 85° W 21:03:26 10° N
Cosmos 1486 Rocket 4.5 20:54:31 10° S 20:59:29 42° ESE 21:04:27 10° NE
Aureole 1 Rocket 3.3 21:01:29 17° SSE 21:03:15 27° ESE 21:05:55 10° NE
Spot 2 Rocket 3.5 21:00:26 14° SSE 21:04:51 78° ENE 21:09:55 10° NNW
USA 215 4.0 21:02:28 10° ENE 21:08:01 29° SE 21:13:33 10° S
ASTRO F (AKARI) 4.3 21:06:11 20° SSE 21:08:03 58° ENE 21:11:06 10° N
Helios 1A Rocket 2.9 21:06:54 14° S 21:10:18 77° WSW 21:14:20 10° NNW
Resurs 01 Rocket 3.4 21:06:56 10° SSW 21:10:44 28° W 21:14:34 10° NW
Cosmos 1536 2.8 21:08:28 10° N 21:12:30 84° W 21:15:41 16° S
Cosmos 2219 3.2 21:06:50 10° NNW 21:12:30 80° WSW 21:16:58 17° SSE
Cosmos 1933 Rocket 3.6 21:09:14 10° N 21:13:43 76° E 21:17:05 17° SSE
CZ-2C R/B 3.9 21:14:12 10° NNE 21:18:53 58° E 21:22:51 14° S
Cosmos 2082 3.8 21:17:57 10° NNW 21:23:38 71° ENE 21:27:37 20° SE
Okean 1 3.9 21:21:36 22° SSE 21:23:44 40° E 21:27:31 10° NNE
Cosmos 1503 Rocket 4.4 21:23:47 17° SSE 21:27:30 43° ESE 21:32:31 10° NE
Meteor 1-19 Rocket 4.4 21:25:25 18° SSE 21:29:16 50° E 21:34:28 10° NNE
ATLAS 2AS CENTAUR R/B 3.7 21:25:30 16° SSE 21:30:26 31° ESE 21:36:50 10° NE
Cosmos 1464 Rocket 4.0 21:24:39 10° S 21:30:54 87° W 21:37:07 10° N
NOSS 3-4 (A) 3.2 21:28:44 10° SSW 21:34:25 72° SE 21:40:37 10° NE
NOSS 3-4 (C) 3.3 21:28:48 10° SSW 21:34:30 71° SE 21:40:43 10° NE
Cosmos 1515 4.2 21:32:23 10° SSW 21:36:02 59° WNW 21:39:48 10° N
Cosmos 2228 Rocket 3.6 21:34:01 23° SSE 21:36:27 44° E 21:40:48 10° NNE
Cosmos 1743 3.4 21:34:28 10° NNW 21:38:08 48° W 21:40:45 17° SSW
Cosmos 2344 3.5 21:32:15 10° SSW 21:39:33 59° ESE 21:47:04 10° NE
SL-4 R/B 2.1 21:35:39 10° WNW 21:40:08 67° SSW 21:42:27 25° SE
Cosmos 1975 3.6 21:36:18 10° N 21:40:09 38° ENE 21:41:58 25° SE
Cosmos 2263 Rocket 2.6 21:36:34 10° NNW 21:42:04 53° NE 21:45:45 20° SE
SJ 16-02 2.0 21:42:32 26° SSE 21:44:11 36° ESE 21:48:12 10° NE
Cosmos 389 Rocket 3.3 21:40:54 10° NNW 21:44:15 45° W 21:46:16 21° SSW
Timation 2 Rocket 4.1 21:37:52 10° NNW 21:44:23 85° ENE 21:48:57 22° SSE
USA 267 3.6 21:38:46 10° ESE 21:45:15 67° NNE 21:51:45 10° WNW
Cosmos 1092 Rocket 4.1 21:40:06 10° N 21:46:19 68° ENE 21:50:16 23° SSE
Cosmos 2227 Rocket 3.1 21:43:43 10° NW 21:48:58 40° WSW 21:52:58 16° S
Cosmos 44 Rocket 4.3 21:47:27 10° NNW 21:51:53 38° NE 21:55:22 15° ESE
Meteor 2-4 Rocket 4.3 21:49:05 24° SSE 21:52:13 44° E 21:57:36 10° NNE
Cosmos 1515 Rocket 4.5 21:48:02 10° SSW 21:52:13 46° WNW 21:56:28 10° N
Cosmos 1634 Rocket 4.3 21:49:35 23° SSE 21:53:17 51° E 21:59:16 10° NNE
ARIANE 5 R/B 2.8 21:50:53 24° S 21:53:32 68° WSW 21:58:03 10° NNW
Nadezhda 4 Rocket 4.2 21:47:36 10° NNW 21:53:50 67° W 21:58:31 18° S
ERS-1 Rocket 3.8 21:54:11 17° SSW 21:57:51 45° W 22:02:41 10° NNW
Geosat 4.2 21:55:16 25° S 21:58:10 62° WSW 22:03:10 10° NW
SPOT 5 4.0 21:54:10 14° SSW 21:58:22 41° W 22:03:19 10° NNW
Cosmos 482 Debris 4.2 21:55:43 10° WNW 21:58:50 80° NNE 22:02:38 16° ESE
Cosmos 2369 3.6 21:54:30 14° SSW 21:59:25 72° ESE 22:05:05 10° NNE
Cosmos 1869 Rocket 3.7 21:58:04 10° NNW 22:02:33 72° W 22:04:55 27° S
Cosmos 1340 3.9 21:59:42 11° SW 22:03:05 38° WNW 22:06:38 10° N
Cosmos 1980 Rocket 2.1 21:59:58 17° SSW 22:04:18 68° ESE 22:09:56 10° NNE
Cosmos 158 Rocket 4.2 21:59:40 10° NNW 22:04:41 59° ENE 22:07:24 27° SE
Meteor 1-18 Rocket 4.3 22:01:56 24° S 22:05:25 67° E 22:11:03 10° NNE
Cosmos 1184 Rocket 4.2 22:06:26 16° SW 22:08:26 32° WNW 22:11:12 10° N
ATLAS 3B R/B 3.5 22:01:27 10° NW 22:08:34 54° NE 22:15:22 12° ESE
Cosmos 2322 Rocket 3.8 22:08:21 16° ESE 22:09:16 17° E 22:12:41 10° ENE
CSL-04 DEB 4.4 22:07:07 10° NNE 22:11:03 78° WNW 22:13:13 26° SSW
ISS -3.4 22:09:13 10° WNW 22:12:34 66° N 22:14:29 23° E
Cosmos 2026 Rocket 4.0 22:13:37 10° N 22:19:46 83° W 22:23:21 27° S
Cosmos 2227 4.4 22:16:29 10° NNW 22:22:15 70° ENE 22:25:22 28° SE
ERS-2 4.0 22:19:58 10° NE 22:22:19 17° E 22:22:19 17° E
Cosmos 1844 Rocket 4.1 22:19:10 10° NNW 22:24:06 30° NE 22:28:31 12° ESE
Cosmos 1697 Rocket 3.6 22:20:36 10° SW 22:26:06 50° NW 22:31:38 10° NNE
Cosmos 2297 Rocket 4.4 22:23:13 10° WNW 22:26:08 14° W 22:29:03 10° SW
Cosmos 921 Rocket 4.1 22:22:20 10° NW 22:26:30 37° WSW 22:28:30 24° SSW
Spot 4 4.2 22:25:02 30° SE 22:27:09 54° ENE 22:31:51 10° N
Terra 3.3 22:25:39 16° SW 22:28:34 29° W 22:32:44 10° NNW
Iridium 2 3.8 22:26:28 10° N 22:30:12 61° E 22:31:01 47° SE
Cosmos 1354 Rocket 4.2 22:26:52 17° SSW 22:30:56 74° WNW 22:36:16 10° NNE
SAR-Lupe-4 4.3 22:27:29 10° N 22:30:59 49° WNW 22:32:44 26° SW
Cosmos 1707 Rocket 3.5 22:29:27 36° S 22:31:12 84° E 22:35:40 10° N
ATLAS CENTAUR R/B 4.1 22:29:24 10° NNW 22:33:10 21° NNE 22:36:52 10° ENE
USA 81 4.1 22:34:58 29° SSW 22:37:46 77° W 22:43:05 10° N
RESURS DK-1 2.3 22:39:51 46° S 22:40:56 68° ESE 22:45:02 10° NE
Cosmos 1777 Rocket 3.9 22:39:02 27° SSW 22:41:55 90° ESE 22:47:12 10° NNE
Okean 1-7 4.2 22:42:04 26° ESE 22:42:56 28° E 22:46:41 10° NNE
SL-16 R/B 2.8 22:42:11 33° SE 22:43:52 40° ESE 22:49:08 10° NE
Cosmos 1726 3.6 22:41:25 10° NNE 22:44:31 25° ENE 22:45:20 23° E
Cosmos 1346 Rocket 2.7 22:44:41 45° SSW 22:45:51 86° W 22:49:54 10° N
Meteor 1-4 Rocket 2.7 22:42:43 10° N 22:46:07 53° ENE 22:46:31 49° ESE
Cosmos 1733 3.3 22:46:15 10° N 22:50:03 63° ENE 22:50:44 51° SE
NOSS 2-1 (D) 4.5 22:52:15 22° E 22:52:15 22° E 22:53:51 10° ENE
USA 215 3.2 22:45:03 10° ENE 22:51:40 82° SSE 22:58:14 10° SW
Meteor 2-15 Rocket 4.4 22:48:41 32° S 22:51:44 83° E 22:57:51 10° NNE
Cosmos 2266 Rocket 4.2 22:47:24 10° N 22:53:40 60° ENE 22:56:40 31° SE
Cosmos 1356 4.0 22:53:53 40° E 22:53:53 40° E 22:56:50 10° NNE
ALOS 2 2.8 22:54:29 40° SE 22:55:52 62° ENE 23:00:13 10° N
Cosmos 2278 3.8 22:56:47 21° SW 23:00:36 76° WNW 23:06:20 10° NNE
Cosmos 1733 Rocket 3.6 22:58:57 10° NNW 23:03:14 49° W 23:04:38 35° SW
Cosmos 2279 Rocket 4.0 23:00:37 30° SSW 23:03:55 80° W 23:10:10 10° N
Transit 2A Rocket 4.4 23:02:25 10° NW 23:06:57 82° SW 23:08:03 50° SSE
Cosmos 1908 Rocket 3.5 23:04:31 10° N 23:08:53 73° E 23:09:58 49° SSE
Iridium 51 3.7 23:08:45 76° S 23:09:00 88° E 23:12:28 10° N
Iridium 4 Rocket 3.1 23:08:17 10° N 23:12:38 77° E 23:13:53 47° SSE
Cosmos 1862 Rocket 3.9 23:11:23 36° SW 23:13:00 60° WNW 23:17:27 10° N
Cosmos 1538 Rocket 4.3 23:08:47 10° NNW 23:13:56 55° WSW 23:15:38 38° SSW
Cosmos 2180 Rocket 4.4 23:14:27 33° SSW 23:17:26 82° W 23:23:37 10° N
Cosmos 2360 Rocket 3.0 23:16:09 31° SE 23:17:29 35° ESE 23:22:35 10° NE
Cosmos 1842 4.3 23:18:27 31° ESE 23:18:50 31° E 23:22:18 10° NNE
SL-4 R/B 4.0 23:16:03 10° W 23:17:53 17° WSW 23:17:53 17° WSW
Okean 3 3.8 23:20:00 43° SE 23:20:42 48° E 23:24:47 10° NNE
ATLAS 2AS CENTAUR R/B 3.0 23:13:01 10° SW 23:20:51 81° NW 23:28:24 10° NE
SL-24 R/B - RUBIN 2 3.8 23:18:30 10° NW 23:22:46 52° SW 23:23:26 47° SSW
SJ 16-02 3.1 23:19:26 12° WSW 23:22:48 29° WNW 23:26:38 10° N
CZ-4C R/B 4.0 23:17:14 10° NW 23:23:33 42° NNE 23:31:05 10° E
Cosmos 2263 Rocket 3.3 23:20:57 10° NW 23:25:43 29° WSW 23:27:26 25° SW
Cosmos 1441 Rocket 3.5 23:25:27 47° WSW 23:26:10 56° WNW 23:29:52 10° N
USA 267 3.4 23:25:35 33° SSE 23:28:24 54° SW 23:34:49 10° WNW
Cosmos 1066 Rocket 4.3 23:25:55 34° SSW 23:28:35 76° WNW 23:34:20 10° N
H-2A R/B 3.6 23:26:44 10° N 23:30:48 66° WNW 23:31:52 45° SW
Cosmos 923 Rocket 4.0 23:27:23 10° NNW 23:32:45 83° WSW 23:34:38 42° SSE
ADEOS Rocket 2.7 23:30:44 37° SSE 23:33:02 86° ENE 23:38:54 10° NNW
Cosmos 44 Rocket 3.7 23:29:01 10° NW 23:33:27 41° WSW 23:34:03 39° SW
Cosmos 1655 Rocket 4.0 23:30:28 10° NNW 23:36:43 73° W 23:39:24 36° S
Cosmos 1818 4.0 23:31:43 10° NW 23:37:09 59° NE 23:40:57 19° ESE
Cosmos 2333 Rocket 3.2 23:39:09 27° SE 23:40:34 31° ESE 23:45:27 10° NE
Cosmos 1805 4.3 23:39:05 10° NNW 23:42:36 33° W 23:43:08 32° WSW
Cosmos 1980 Rocket 4.0 23:44:02 10° WSW 23:48:49 27° NW 23:53:38 10° NNE
Cosmos 1766 3.5 23:45:04 10° NNW 23:48:54 53° W 23:49:21 49° WSW
Meteor 1-15 Rocket 4.3 23:43:32 10° NNW 23:49:06 68° W 23:51:11 39° SSW
ISS -1.9 23:46:05 10° WNW 23:47:24 21° W 23:47:24 21° W
Cosmos 2322 Rocket 2.1 23:50:08 36° SSW 23:52:32 88° WNW 23:58:12 10° NNE
Cosmos 1937 Rocket 3.7 23:51:37 41° SSE 23:53:07 56° ESE 23:58:16 10° NNE
Cosmos 2112 Rocket 4.0 23:48:10 10° NNW 23:53:33 84° WSW 23:55:29 41° SSE
ERS-2 2.9 23:52:32 10° N 23:55:59 41° WNW 23:56:43 36° WSW
